Погода в Уусикаупунки

Финляндия     60°48′06″N   21°25′19″E
темп.,
°C
ветер,
м/с
пор.,
м/с
влажн.,
%
обл.,
%
осадки,
мм/ч
давл.,
гПа
погр.,
м
22 апреля, чт
чт2200:00+5юв2467100 0.0 100086
03:00+4вюв2468100 0.0 100080
06:00+3вюв2372100 0.0 100054
09:00+6юв2360100 0.0 1000346
12:00+7ю3371100 0.2 1001870
15:00+7зюз2370100 1.3 1003803
18:00+5зсз337577 0.2 1004660
21:00+2ссз479693 0.3 1004273
23 апреля, пт
пт2300:00+1ссз5895100 0.2 1002462
03:00+1с5996100 0.9 1003586
06:00+1с71396100 1.0 1004700
09:00+1ссз81289100 1.3 10051039
12:00+2ссз91279100 0.3 10061145
15:00+2сз101483100 0.7 10061179
18:00+1ссз101695100 0.7 1005827
21:00+1ссз91595100 1.8 1006861
24 апреля, сб
сб2400:00+1ссз91493100 0.3 10071198
03:00+1ссз81496100 0.7 1007886
06:00+1сз91596100 0.8 1006964
09:00+1с61193100 1.3 1006890
12:00+1с81395100 0.3 1009760
15:00+2ссз91282100 0.5 10111031
18:00+2ссз91383100 0.1 10111142
21:00+1ссз81293100 0.4 1011966
25 апреля, вс
вс2500:00+1с61190100 0.2 1010778
03:000ссз71498100 2.4 1010698
06:00+1с71291100 1.7 1010849
09:00+1ссз71386100 1.8 1010853
12:00+2ссз81286100 0.1 1010895
15:00+2ссз8128496 0.3 10101092
18:00+2ссз71293100 0.4 1009905
21:00+1с3697100 0.6 1008406
26 апреля, пн
пн2600:00+1с3693100 0.0 1009364
03:00+2ссз3798100 0.1 1009312
06:00+3с41098100 0.5 1008378
09:00+4с51293100 1.0 1009568
12:00+4с6989100 0.0 1010581
15:00+5ссз6984100 0.1 1010810
18:00+4ссз61087100 0.0 1011570
21:00+3с51090100 0.0 1011548